THOR ABLESTAR DEB, 351

Orbit data source: Space-Track

THOR ABLESTAR DEB, 351 is space debris in LEO originally from a launch on Thu, 29 Jun 1961 UTC launched from the Air Force Eastern Test Range (AFETR). Debris objects in space refer to the collection of defunct objects orbiting the Earth. Examples of debris include non-operational satellites, rocket bodies, and fragments generated from explosions, collisions, or faulty payload assembly.

Loading next visibility...
Identifier
351, 1961-015DR
Orbit
LEO
Country
Flag of USUS
Related business
Manufacturer
Unknown
Mission
Spacecraft
Bus & Motor
Unknown
Mass
Unknown
Launch date (UTC)
1961-06-29 (65 years ago)
Launch vehicle
Unknown
Launch site
Air Force Eastern Test Range (AFETR)
Object type
Payload
Rocket body
Debris
Shape & HBR
Unknown shape, 0.1 m
Radar Cross Section
Small (<0.1 m²)

Expand to show TLE details & history
Last TLE update: 17 hours ago

TLE from 17 hours ago
0 THOR ABLESTAR DEB
1 00351U 61015DR  26033.48509408  .00010562  00000-0  12854-2 0  9990
2 00351  66.7412 110.0478 0018856  48.1022 312.1709 14.83625346357733
Epoch: 2026-02-02T11:38Z
TLE epoch observation values (Epoch: 2026-02-02T11:38:32.128Z)
Latitude
0.00005°
Longitude
162.73425°
Altitude
611.223 km
Speed
7.559 km/s
True Right ascension
07h 20m 11s
True Declination
0° 00' 00"
Sunlit
Object was in full shadow at epoch
Visualization orbit readout
Latitude
Unknown
Longitude
Unknown
Altitude
Unknown
Speed
Unknown
Apparent Right ascension
Unknown
Apparent Declination
Unknown
Sunlit
N/A
Visualization observer readout
Local Sidereal Time
06:35:45
Azimuth
Unknown
Elevation
Unknown
Doppler factor
Unknown
Orbital elements
Apogee altitude
629.422 km
Perigee altitude
603.045 km
Semi-major axis
6,994.37 km
Eccentricity
0.00189
Inclination
66.7412°
RAAN
110.0478°
Arg. of periapsis
48.1022°
True anomaly
312.0105°
Mean anomaly
312.1709°
Eccentric anomaly
312.09073°
Mean motion
3.7104 °/min
Orbital period
97.02 mins
BSTAR
0.0012854
Loading maneuver chart data...
Computing Atmospheric mass density...

Documentation

Showing up to 5 results
|